Location: Henham
(51.9333°N, 0.2500°E)
Time: 23:01:02
(UTC+00:00)

Envisat - Pass Details

Date: 23 October 2019
Orbit: 764 x 766 km, 98.1° (Epoch: 16 November)

Event Time Altitude Azimuth Distance (km) Brightness Sun altitude
Rises 17:19:51 0° 150° (SSE) 3,224 6.0 -5.4°
Reaches altitude 10° 17:22:11 10° 146° (SE) 2,302 5.3 -5.8°
Maximum altitude 17:27:07 56° 69° (ENE) 912 3.1 -6.5°
Drops below altitude 10° 17:32:06 10° 352° (N) 2,317 5.5 -7.3°
Sets 17:34:27 0° 349° (NNW) 3,247 6.3 -7.7°
